Home > Weather > Antananarivo > Past weeks

Flag for Madagascar Weather for the Past 2 Weeks in Antananarivo, Madagascar

Now
64 °F

Passing clouds.


Feels Like: 64 °F
Forecast: 64 / 80 °F
Wind: No wind

Location: Antananarivo / Ivato

Current Time: Feb 13, 2016 at 6:08:00 AM

Latest Report: Feb 13, 2016 at 5:30 AM


Visibility: N/A

Pressure: 30.01 "Hg (25.80 "Hg at 1287m altitude)

Humidity: 94%

Dew point: 63 °F

Location of AntananarivoLocation

Historic Weather in Antananarivo — Graph

°F

Antananarivo Temperature Yesterday

Maximum temperature yesterday: 84 °F (at 2:30 PM)
Minimum temperature yesterday: 59 °F (at 4:00 AM)
Average temperature yesterday: 71 °F

High & Low Weather Summary for the Past Weeks

 TemperatureHumidityPressure
High84 °F (Jan 29, 1:30 PM)100% (Feb 12, 6:00 AM)30.15 "Hg (Feb 12, 6:00 AM)
Low59 °F (Feb 12, 4:00 AM)42% (Feb 12, 3:00 PM)29.83 "Hg (Feb 9, 2:00 PM)
Average71 °F73%30.02 "Hg
* Reported Jan 29 5:00 AM — Feb 13 5:00 AM, Antananarivo, Weather by CustomWeather, © 2016

Note: Actual official high and low records may vary slightly from our data, if they occured in-between our weather recording intervals... More about our weather records

Advertising

Antananarivo Weather History for the Previous 24 Hours

 ConditionsComfort  
Time TempWeatherWind HumidityBarometerVisibility
5:00 AM
Sat, Feb 13
64 °FPassing clouds.No wind94%30.01 "HgN/A
4:30 AM64 °FPassing clouds.No wind94%30.01 "HgN/A
4:00 AM64 °FPassing clouds.No wind94%30.01 "HgN/A
3:30 AM64 °FPassing clouds.No wind94%29.98 "HgN/A
3:00 AM64 °FPassing clouds.No wind88%29.98 "HgN/A
2:00 AM64 °FPassing clouds.No wind88%29.98 "HgN/A
1:30 AM66 °FPassing clouds.No wind83%29.98 "HgN/A
12:30 AM66 °FPassing clouds.No wind83%30.01 "HgN/A
12:00 AM66 °FPassing clouds.No wind83%30.01 "HgN/A
11:30 PM
Fri, Feb 12
66 °FPassing clouds.No wind83%30.01 "HgN/A
11:00 PM66 °FPassing clouds.No wind83%30.01 "HgN/A
10:30 PM66 °FPassing clouds.No wind83%30.01 "HgN/A
10:00 PM66 °FPassing clouds.No wind83%30.01 "HgN/A
9:30 PM68 °FPassing clouds.No wind78%30.01 "HgN/A
9:00 PM68 °FPassing clouds.No wind78%30.01 "HgN/A
8:30 PM70 °FPassing clouds.No wind73%30.01 "HgN/A
8:00 PM70 °FPassing clouds.No wind73%30.01 "HgN/A
7:30 PM72 °FPassing clouds.No wind65%29.98 "HgN/A
7:00 PM72 °FPassing clouds.No wind65%29.98 "HgN/A
6:30 PM73 °FPassing clouds.5 mph57%29.98 "HgN/A
6:00 PM77 °FPassing clouds.12 mph54%29.95 "HgN/A
5:30 PM79 °FPassing clouds.10 mph48%29.95 "HgN/A
5:00 PM81 °FPassing clouds.13 mph45%29.95 "HgN/A
4:30 PM81 °FScattered clouds.10 mph45%29.95 "HgN/A
4:00 PM82 °FScattered clouds.13 mph42%29.92 "HgN/A
3:30 PM82 °FScattered clouds.10 mph42%29.92 "HgN/A
3:00 PM82 °FPartly sunny.12 mph42%29.92 "HgN/A
2:30 PM84 °FPartly sunny.12 mph43%29.95 "HgN/A
2:00 PM81 °FPartly sunny.10 mph45%29.95 "HgN/A
1:30 PM82 °FPartly sunny.13 mph45%29.95 "HgN/A
1:00 PM81 °FPartly sunny.10 mph45%29.95 "HgN/A
12:30 PM82 °FPartly sunny.9 mph48%29.98 "HgN/A
12:00 PM79 °FPartly sunny.10 mph51%29.98 "HgN/A
11:30 AM79 °FPartly sunny.9 mph51%29.98 "HgN/A
11:00 AM79 °FPartly sunny.9 mph48%29.98 "HgN/A
10:30 AM79 °FScattered clouds.12 mph54%30.01 "HgN/A
10:00 AM75 °FPartly sunny.9 mph61%30.01 "HgN/A
9:30 AM73 °FScattered clouds.10 mph65%30.01 "HgN/A
9:00 AM73 °FScattered clouds.8 mph65%30.01 "HgN/A
8:30 AM70 °FScattered clouds.No wind73%30.01 "HgN/A
8:00 AM70 °FScattered clouds.No wind78%30.01 "HgN/A
7:30 AM66 °FPassing clouds.No wind88%30.01 "HgN/A
7:00 AM64 °FPassing clouds.No wind94%30.01 "HgN/A
6:30 AM63 °FPassing clouds.No wind100%29.98 "HgN/A
6:00 AM61 °FPassing clouds.No wind100%29.98 "HgN/A
Weather by CustomWeather, © 2016

See weather overviewHow to use our weather pages